Location: Castelnaud-sur-Gupie
(44.5599°N, 0.1327°E)
Time: 02:31:30
(UTC+00:00)

Daily predictions for brighter satellites

Satellite Brightness Start Highest point End
(mag) Time Altitude Azimuth Time Altitude Azimuth Time Altitude Azimuth
SL-16 R/B 4.4 01:04:18 24° N 01:04:18 24° N 01:06:40 10° N
Resurs 1-4 Rocket 4.2 01:50:12 10° NNE 01:51:57 22° N 01:51:57 22° N
CZ-2D R/B 4.2 01:53:25 10° N 01:55:14 22° N 01:55:14 22° N
SJ 16-02 4.3 02:02:17 10° NNE 02:03:00 13° NNE 02:03:00 13° NNE
Lacrosse 5 3.9 02:13:50 25° NNE 02:13:50 25° NNE 02:16:04 10° NE
ATLAS 5 CENTAUR R/B 4.4 02:16:15 13° N 02:16:15 13° N 02:17:21 10° N
ARIANE 5 R/B 3.9 02:21:55 10° NNE 02:25:30 34° ENE 02:25:30 34° ENE
NOSS 3-3 (A) 4.4 02:34:42 55° E 02:34:42 55° E 02:40:20 10° NE
NOSS 3-3 (C) 4.4 02:34:50 54° E 02:34:50 54° E 02:40:25 10° NE
USA 267 3.6 02:28:00 10° ENE 02:34:08 56° ESE 02:34:08 56° ESE
ADEOS II 3.2 02:42:06 10° N 02:45:20 38° N 02:45:20 38° N
ATLAS 2AS CENTAUR R/B 4.3 02:41:58 10° NNW 02:48:50 35° NE 02:55:13 10° E
IDEFIX/ARIANE 42P 3.2 02:46:03 10° NNE 02:51:12 51° E 02:51:13 51° E
BREEZE-M DEB (TANK) 4.3 02:51:05 56° S 02:52:17 62° SE 03:12:54 10° ENE
Cosmos 1697 Rocket 3.9 02:56:36 31° NNW 02:56:36 31° NNW 03:00:15 10° NNE
Cosmos 1980 Rocket 2.7 03:02:25 50° NNW 03:02:25 50° NNW 03:06:58 10° NNE
Cosmos 2263 Rocket 2.2 02:59:50 10° NNW 03:05:32 81° ENE 03:11:13 10° SSE
Cosmos 44 4.3 03:10:35 35° N 03:10:35 35° N 03:13:41 10° NNE
USA 234 3.8 03:03:02 10° ESE 03:09:23 57° NNE 03:15:31 11° NW
Cosmos 2322 Rocket 3.1 03:08:24 33° SSE 03:10:14 43° ESE 03:15:36 10° NE
Meteor 1-4 Rocket 4.4 03:13:45 28° NE 03:13:45 28° NE 03:15:50 10° NNE
Cosmos 1666 4.3 03:13:27 10° N 03:16:58 34° ENE 03:18:11 27° ESE
CZ-2D R/B 4.1 03:14:20 10° NNE 03:17:38 53° NNE 03:17:38 53° NNE
Cosmos 1812 3.9 03:21:36 39° NNE 03:21:36 39° NNE 03:24:10 10° NNE
SL-16 R/B 2.4 03:20:04 48° SSE 03:21:28 65° ESE 03:27:06 10° NNE
Cosmos 1934 Rocket 4.0 03:15:40 10° NNW 03:20:56 55° WNW 03:20:56 55° WNW
CZ-3B R/B 3.4 03:21:32 30° NNW 03:21:58 31° N 03:29:04 10° ENE
USA 276 4.4 03:25:21 25° NE 03:25:21 25° NE 03:27:14 10° ENE
Cosmos 1536 4.4 03:25:31 10° N 03:29:18 35° ENE 03:33:03 10° SE
Cosmos 1238 Rocket 4.0 03:23:57 10° NNW 03:30:02 53° W 03:30:02 53° W
Spot 4 Rocket 3.9 03:28:30 10° N 03:33:39 76° WNW 03:34:17 66° SW
Cosmos 1898 Rocket 3.5 03:28:53 10° NNW 03:34:10 82° ENE 03:39:28 10° SSE
CZ-2C R/B 3.7 03:29:21 10° NNE 03:34:15 41° E 03:39:08 10° SSE
Resurs 1-4 Rocket 4.3 03:32:17 10° NNW 03:33:02 11° NW 03:33:02 11° NW
CZ-2D R/B 4.3 03:35:53 10° NNW 03:36:32 11° NW 03:36:32 11° NW
ASTEX 1 3.8 03:34:22 10° N 03:38:38 47° WNW 03:38:38 47° WNW
Cosmos 1869 Rocket 3.9 03:37:26 10° NNW 03:40:47 50° NW 03:40:47 50° NW
MSX 3.7 03:37:26 10° NNE 03:43:14 83° WNW 03:45:54 34° SSW
IRIDIUM 104 4.2 03:40:56 10° N 03:46:11 83° W 03:50:24 16° S
Landsat 5 3.6 03:42:09 10° SSE 03:46:40 85° ENE 03:51:08 10° NNW
Cosmos 2228 Rocket 3.9 03:48:02 35° NW 03:48:02 35° NW 03:51:13 10° N
PSLV R/B 4.2 03:43:57 10° NNE 03:48:04 52° E 03:51:00 18° S
Meteor 1-5 Rocket 4.1 03:47:45 10° NNW 03:52:58 55° W 03:56:00 25° SSW
Cosmos 1153 Rocket 4.4 03:47:39 10° N 03:54:03 80° W 04:00:20 10° S
CZ-4C R/B 3.5 03:55:01 47° NNW 03:55:01 47° NNW 03:57:41 10° NNW
Cosmos 1605 Rocket 4.1 03:48:08 10° NNW 03:54:18 52° W 03:58:55 18° SSW
Gbstr 26 Del rocket 4.4 03:49:31 22° WNW 03:54:55 61° SW 04:02:03 10° SE
Lacrosse 5 3.6 03:53:01 18° NW 03:54:57 23° NNW 03:58:57 10° NE
Cosmos 1937 Rocket 3.4 03:50:04 10° NNW 03:55:15 90° ESE 04:00:23 10° SSE
IRIDIUM 114 4.2 03:50:07 10° N 03:55:19 69° W 03:59:30 16° S
H-2A R/B 2.0 03:52:49 10° S 03:57:12 77° WSW 04:01:44 10° NNW
ERBS 3.9 03:58:34 25° NNW 03:58:34 25° NNW 04:01:10 10° NNE
X-37B 2.3 03:59:51 25° SSE 03:59:51 25° SSE 04:01:30 10° SE
Meteor 1-10 Rocket 4.3 03:56:19 34° SW 03:58:47 60° WNW 04:04:38 10° N
Cosmos 841 Rocket 3.8 03:56:30 17° S 04:00:33 68° ESE 04:05:48 10° NNE
FALCON 9 DEB 3.3 04:01:05 58° NNW 04:01:08 58° NNW 04:04:31 10° NE
CSL-04 DEB 4.4 03:57:05 10° S 04:01:23 71° WSW 04:05:46 10° NNW
ERS-2 2.4 03:58:51 10° SSE 04:02:28 67° ENE 04:06:07 10° N
USA 32 3.9 03:57:48 10° N 04:03:05 83° W 04:08:20 10° S
IRIDIUM 103 4.3 03:59:20 10° N 04:04:26 57° W 04:08:38 15° SSW
Cosmos 1743 4.4 04:01:19 10° N 04:04:49 34° ENE 04:08:19 10° SE
SL-4 R/B 2.3 04:03:35 45° W 04:04:56 73° NNW 04:09:44 10° ENE
ARIANE 5 R/B 3.4 04:01:19 10° N 04:05:35 28° WNW 04:05:49 28° WNW
Cosmos 1763 Rocket 3.6 04:04:26 35° SW 04:06:29 58° WNW 04:11:43 10° NNE
Cosmos 2333 Rocket 4.2 04:02:56 10° SSE 04:07:43 28° ESE 04:12:30 10° NE
CZ-2C R/B 3.2 04:04:29 10° N 04:08:05 41° WNW 04:08:05 41° WNW
NOSS 3-4 (A) 3.8 04:09:34 10° NW 04:16:38 83° SW 04:24:28 10° SSE
NOSS 3-4 (C) 3.8 04:09:40 10° NW 04:16:44 83° SW 04:24:34 10° SSE
USA 267 3.6 04:11:06 10° NE 04:17:25 54° NNW 04:21:28 23° W
CZ-4B R/B 1.9 04:19:06 10° SSE 04:22:13 58° ENE 04:25:28 10° N
Cosmos 540 Rocket 3.4 04:20:36 15° SSW 04:24:58 75° WNW 04:30:10 10° NNE
ADEOS 4.0 04:20:31 10° NNE 04:25:44 65° ESE 04:30:54 10° S
ADEOS II 4.1 04:24:55 10° NW 04:26:04 11° NW 04:26:15 11° WNW
ADEOS Rocket 3.0 04:19:49 10° SSE 04:26:32 81° WSW 04:32:36 10° NNW
IDEFIX/ARIANE 42P 3.8 04:26:20 10° NNW 04:30:26 24° WNW 04:32:01 20° W
PAYLOAD A 3.9 04:26:36 10° N 04:31:09 52° WNW 04:35:28 11° SW
Cosmos 1727 Rocket 4.4 04:26:59 13° SW 04:32:22 43° WNW 04:38:23 10° N
Cosmos 2100 Rocket 4.0 04:27:15 10° NNW 04:33:34 64° W 04:39:48 10° S
Cosmos 2360 Rocket 2.1 04:29:27 10° SSW 04:35:06 76° WNW 04:40:48 10° NNE
Cosmos 1570 Rocket 4.1 04:31:43 12° SSW 04:36:39 62° WNW 04:41:59 10° NNE
FENGYUN 3A 4.1 04:31:32 10° NNE 04:36:56 65° ESE 04:42:17 10° S
deb Chang Zheng 4 3.6 04:34:02 10° NNE 04:38:21 82° ESE 04:42:36 10° SSW
SAR-Lupe-4 3.6 04:35:47 10° SSE 04:39:22 81° ENE 04:42:59 10° NNW
ATLAS 2AS CENTAUR R/B 2.7 04:33:01 10° NW 04:40:26 71° WSW 04:47:13 10° SSE
Cosmos 1459 Rocket 3.9 04:34:31 10° NNW 04:40:30 60° W 04:46:25 10° S
Cosmos 1802 Rocket 3.9 04:36:22 10° NNW 04:42:34 72° W 04:48:48 10° S
Cosmos 1484 Rocket 3.0 04:39:31 10° NNE 04:43:32 77° ESE 04:47:32 10° S
Cosmos 44 Rocket 3.5 04:42:19 17° WSW 04:45:52 52° NW 04:50:39 10° NNE
Cosmos 1908 Rocket 3.9 04:41:27 10° N 04:45:55 71° E 04:50:23 10° SSE
Cosmos 1980 Rocket 4.2 04:44:22 10° WNW 04:46:40 12° NW 04:48:57 10° NNW
Cosmos 1703 Rocket 4.4 04:42:50 10° S 04:47:02 53° E 04:51:18 10° NNE
Meteor 1-4 Rocket 4.5 04:47:58 13° WNW 04:47:58 13° WNW 04:49:27 10° NW
Cosmos 2263 Rocket 3.7 04:45:34 10° WNW 04:49:47 15° WSW 04:51:50 10° SW
Okean 1 3.3 04:45:50 10° S 04:49:53 89° WNW 04:53:57 10° N
Cosmos 1666 4.2 04:49:47 10° NW 04:52:14 17° W 04:52:53 16° W
Okean 1-7 3.8 04:48:07 10° S 04:52:16 55° E 04:56:26 10° NNE
USA 234 3.4 04:46:06 10° SSE 04:52:26 52° SW 04:58:48 10° WNW
Cosmos 1515 3.9 04:49:21 10° S 04:53:07 75° E 04:56:55 10° NNE
Cosmos 2123 Rocket 4.0 04:47:40 10° S 04:53:56 82° W 05:00:17 10° N
Cosmos 1844 Rocket 2.7 04:48:28 10° NNW 04:54:05 65° WSW 04:59:39 10° SSE
BREEZE M DEB (TANK) 4.3 04:44:47 10° WNW 04:54:06 30° WSW 04:57:48 10° S
Cosmos 2322 Rocket 3.0 04:50:14 14° WSW 04:54:24 33° NW 04:59:31 10° N
Meteor 1-31 Rocket 2.8 04:52:14 10° NNE 04:56:05 86° ESE 04:59:57 10° SSW
Cosmos 2278 Rocket 4.2 04:51:08 10° N 04:56:08 31° NE 05:01:07 10° ESE
SAR-Lupe-1 4.0 04:54:51 10° S 04:58:23 62° WSW 05:01:57 10° NNW
Cosmos 1844 3.6 04:54:05 10° NNW 04:59:38 71° WSW 05:05:09 10° SSE
Cosmos 1437 Rocket 2.8 04:56:57 10° SSW 05:00:39 53° WNW 05:04:27 10° N
USA 276 2.1 04:57:43 10° WNW 05:00:53 86° NNE 05:04:05 10° ESE
Cosmos 1536 4.2 05:02:36 10° NW 05:05:26 18° W 05:08:16 10° SW
Meteor 2-9 Rocket 4.2 05:00:17 10° N 05:05:48 85° E 05:11:09 10° S
SL-16 R/B 3.5 05:01:58 11° W 05:06:04 23° NW 05:10:34 10° N
CZ-4B R/B 3.0 05:05:12 10° NNE 05:08:49 68° ESE 05:12:22 10° S
Cosmos 372 Rocket 4.3 05:04:29 10° NW 05:09:18 41° WSW 05:14:04 10° S
Cosmos 1733 Rocket 4.1 05:05:49 10° NW 05:09:20 24° W 05:12:50 10° SW
CZ-2C R/B 3.5 05:07:56 10° N 05:12:16 28° WNW 05:16:38 10° WSW
CZ-4B R/B 4.1 05:08:19 10° N 05:12:40 64° WNW 05:17:05 10° SSW
Cosmos 2242 Rocket 3.6 05:10:08 10° SSW 05:14:27 58° W 05:18:50 10° N
Cosmos 1689 Rocket 2.0 05:12:12 10° S 05:15:08 61° WSW 05:18:05 10° NNW
Intercosmos 25 3.7 05:12:05 10° SW 05:15:34 34° WNW 05:18:33 10° N
ALOS 2.4 05:12:19 10° N 05:16:52 53° WNW 05:21:23 10° SSW
SKYMED 2 3.6 05:12:57 10° SSE 05:17:17 84° WSW 05:21:40 10° NNW
Cosmos 2285 Rocket 4.2 05:16:50 10° NNW 05:23:17 83° ENE 05:29:44 10° SSE
Cosmos 2219 Rocket 2.2 05:17:57 10° SSW 05:23:38 84° WNW 05:29:22 10° NNE
Meteor 2-4 Rocket 3.9 05:19:58 10° S 05:25:25 78° E 05:30:48 10° NNE
Cosmos 2298 Rocket 4.3 05:21:08 10° NNW 05:26:10 45° WSW 05:31:11 10° S
CZ-4C R/B 3.1 05:21:11 10° NW 05:28:30 89° NE 05:36:54 10° SE
